Location: D�pe
(52.6057°N, 8.1808°E)
Time: 01:52:04
(UTC+00:00)

FALCON 9 DEB - Pass Details

Date: 29 October 2020
Orbit: 382 x 399 km, 53.0° (Epoch: 23 November)

Event Time Altitude Azimuth Distance (km) Brightness Sun altitude
Rises 18:16:34 0° 257° (WSW) 2,316 8.1 -20.8°
Reaches altitude 10° 18:18:38 10° 258° (WSW) 1,456 6.8 -21.2°
Enters shadow 18:21:21 58° 254° (WSW) 473 3.5 -21.6°
